Flag for Germany Weather past 2 weeks in Kassel, Hesse, Germany

Now
45 °F

More clouds than sun.


Feels Like: 36 °F
Forecast: 39 / 55 °F
Wind: 23 mph from West

Location: Kassel / Calden

Current Time: Oct 22, 2014 at 10:18:16 AM

Latest Report: Oct 22, 2014 at 9:50 AM


Visibility: N/A

Pressure: 29.83 "Hg

Humidity: 87%

Dew point: 41 °F

Location of KasselLocation

Historic Weather in Kassel — Graph

°F

Kassel temperature yesterday

Maximum temperature yesterday: 55 °F (at 3:50 PM)
Minimum temperature yesterday: 46 °F (at 9:20 PM)
Average temperature yesterday: 52 °F

Past Weeks' High & Low Weather Summary

 TemperatureHumidityPressure
High68 °F (Oct 19, 2:50 PM)100% (Oct 9, 6:50 AM)30.18 "Hg (Oct 9, 6:50 AM)
Low45 °F (Oct 22, 5:50 AM)59% (Oct 15, 3:20 PM)29.47 "Hg (Oct 21, 5:50 PM)
Average57 °F85%29.85 "Hg
* Reported Oct 7 9:20 AM — Oct 22 9:20 AM, Kassel, Weather by CustomWeather, © 2014

Note: Actual official high and low records may vary slightly from our data, if they occured in-between our weather recording intervals... More about our weather records

Advertising

Kassel weather history for previous 24 hours

 ConditionsComfort  
Time TempWeatherWind HumidityBarometerVisibility
9:20 AM
Oct 22
45 °FLight rain. Overcast.22 mph87%29.83 "HgN/A
8:50 AM45 °FMostly cloudy.21 mph81%29.80 "HgN/A
8:20 AM45 °FPassing clouds.22 mph81%29.80 "HgN/A
7:50 AM45 °FPassing clouds.22 mph81%29.80 "HgN/A
7:20 AM45 °FPassing clouds.22 mph81%29.77 "HgN/A
6:50 AM45 °FPassing clouds.24 mph87%29.77 "HgN/A
6:20 AM45 °FMostly cloudy.25 mph87%29.74 "HgN/A
5:50 AM45 °FRain. Mostly cloudy.23 mph87%29.74 "HgN/A
9:50 PM
Oct 21
46 °FPartly cloudy.20 mph82%29.59 "HgN/A
9:20 PM46 °FPartly cloudy.23 mph82%29.56 "HgN/A
8:50 PM50 °FMostly cloudy.22 mph82%29.53 "HgN/A
8:20 PM50 °FLight rain. Mostly cloudy.18 mph82%29.53 "HgN/A
7:50 PM50 °FLight rain. Passing clouds.15 mph88%29.53 "HgN/A
7:20 PM50 °FPassing clouds.13 mph88%29.50 "HgN/A
6:50 PM52 °FRain. Mostly cloudy.23 mph94%29.50 "Hg4 mi
6:20 PM52 °FLight rain. Mostly cloudy.16 mph88%29.47 "HgN/A
5:50 PM54 °FMostly cloudy.16 mph82%29.47 "HgN/A
5:20 PM54 °FBroken clouds.16 mph82%29.50 "HgN/A
4:50 PM54 °FPartly sunny.18 mph77%29.53 "HgN/A
4:20 PM54 °FBroken clouds.21 mph77%29.53 "HgN/A
3:50 PM55 °FPartly sunny.18 mph72%29.56 "HgN/A
3:20 PM54 °FLight rain. Partly sunny.18 mph77%29.59 "HgN/A
2:50 PM54 °FPartly sunny.16 mph77%29.62 "HgN/A
2:20 PM54 °FPartly sunny.13 mph77%29.65 "HgN/A
1:50 PM54 °FPartly sunny.13 mph77%29.65 "HgN/A
1:20 PM54 °FLight rain. Partly sunny.12 mph82%29.68 "HgN/A
12:50 PM54 °FPartly sunny.14 mph77%29.68 "HgN/A
12:20 PM54 °FPartly sunny.13 mph77%29.71 "HgN/A
11:50 AM52 °FBroken clouds.13 mph82%29.74 "HgN/A
11:20 AM52 °FPartly sunny.12 mph82%29.77 "HgN/A
10:50 AM52 °FPartly sunny.15 mph82%29.77 "HgN/A
10:20 AM52 °FPartly sunny.16 mph82%29.77 "HgN/A
Weather by CustomWeather, © 2014

See weather overviewHow to use our weather pages